Location: *
(33.6842°N, 117.7925°W)
Time: 02:31:50
(UTC+00:00)

PAYLOAD B - Pass Details

Date: 21 October 2019
Orbit: 848 x 872 km, 99.1° (Epoch: 22 November)

Event Time Altitude Azimuth Distance (km) Brightness Sun altitude
Rises 13:21:35 0° 9° (N) 3,443 7.4 -8.9°
Reaches altitude 10° 13:24:00 10° 6° (N) 2,499 6.7 -8.4°
Maximum altitude 13:29:28 64° 287° (WNW) 943 4.2 -7.2°
Drops below altitude 10° 13:34:53 10° 206° (SSW) 2,471 6.5 -6.1°
Sets 13:37:15 0° 203° (SSW) 3,401 7.2 -5.6°
